DELTA 1 DEB

Satellite information

Favourite Embed

Satellite Type and Status

DEBRISIN ORBIT

Key statistics

Satellite DELTA 1 DEB at a glance.

Uptime

19343

Days in orbit

Revolutions

≈ 14.6

Per day

Orbit

SSO

Sun Synchronous Orbit

Inclination

97.8

Latest

Satellite identification and parameters

Extended collection of information and parameters for DELTA 1 DEB.

Object identification

Identified? True

Debris? True

Object name: DELTA 1 DEB

International designator: 1972-058JY

Object number (NORAD): 42565

Object ID (CCSDS): 42565

Country: UNITED STATES OF AMERICA (US)

Current information (Y/N): Y

RCS size: SMALL

Orbital parameters

Period: 98.952 minutes

Inclination: 97.8358 deg

SMA: 7086.696 km

Apoapsis: 734.233 km

Periapsis: 682.889 km

RAAN: 354.4787 deg

Eccentricy: 0.0036226

Argument of periapsis: 193.544 deg

Mean anomaly: 166.4789 deg

Mean motion: 14.55248116 rev/day

Mean motion (dot): 0.00000449 rev/day2

B* drag term: 0.00011272 1/REarth

Two-line elements (TLE)

Creation date: July 2, 2025, 6:36 a.m.

Reference frame: TEME

Reference center: EARTH

Epoch: July 2, 2025, 4:51 a.m. UTC

TLE line 0: 0 DELTA 1 DEB

TLE line 1: 1 42565U 72058JY 25183.20215657 .00000449 00000-0 11272-3 0 9994

TLE line 2: 2 42565 97.8358 354.4787 0036226 193.5440 166.4789 14.55248116112706

Live tracking on map

Real-time ground track for satellite DELTA 1 DEB.

In-orbit conjunctions

A list of the most updated potential collisions computed for object DELTA 1 DEB.

Target Orbit TCA Probability of collision Miss distance Type
SL-8 DEB LEO 2024-12-05 04:47:59 0.0001375669 232.0 (m) DEBRIS

Associated space launch

Earth observation satellite

DELTA 1 DEB was lifted into orbit during the mission ‘Delta 0900 | Landsat 1’, on board a Delta 0900 space rocket.

The launch took place on July 23, 1972, 6:06 p.m. from Space Launch Complex 2W.

For more information about the launch, click the button.

Launch to space Delta 0900 | Landsat 1
Delta 0900 | Landsat 1

Agency: N/A

Status: Launch Successful

Launch date: July 23, 1972, 6:06 p.m. UTC

Rocket: Delta 0900

Launch pad: Space Launch Complex 2W

Location: Vandenberg SFB, CA, USA

...

Latest news about this satellite

There are no fresh news available about this satellite. Check back as we update our databases every day.


Newsletter sign-up

Weekly statistics, charts and insights to help you stay on top of the space industry.